When you browse on this site, cookies collect data to enhance your experience and personalize the content and advertising you see.
Visit our Privacy Policy to learn more. By continuing to use the site, you agree to this use of cookies and data.
  • en France
  • Liste des pays
  • À 7 jours
  • Température de l'eau
  • Carte satellitaire
  • Carte météo
  • Widgets météo
  • user-avatar
    Se connecter

    Météo par heure à Chododa

    Ce jour, 11 Décembre, Mardi

    Heure Température Précipitation Vent Pression Humidité
    00:00 -4°C° 0 mm 3 m/s 603 mmHg 64%
    01:00 -4°C° 0 mm 3 m/s 603 mmHg 63%
    02:00 -4°C° 0 mm 3 m/s 603 mmHg 63%
    03:00 -3°C° 0 mm 2 m/s 602 mmHg 59%
    04:00 -3°C° 0 mm 2 m/s 602 mmHg 59%
    05:00 -4°C° 0 mm 3 m/s 603 mmHg 58%
    06:00 -4°C° 0 mm 3 m/s 603 mmHg 57%
    07:00 -2°C° 0 mm 3 m/s 603 mmHg 58%
    08:00 -1°C° 0 mm 3 m/s 603 mmHg 58%
    09:00 0°C° 0 mm 3 m/s 604 mmHg 56%
    10:00 +1°C° 0 mm 3 m/s 604 mmHg 57%
    11:00 +3°C° 0 mm 3 m/s 604 mmHg 58%
    12:00 +4°C° 0 mm 3 m/s 604 mmHg 59%
    13:00 +3°C° 0 mm 3 m/s 604 mmHg 62%
    14:00 +3°C° 0 mm 4 m/s 603 mmHg 64%
    15:00 +1°C° 0 mm 4 m/s 603 mmHg 66%
    16:00 0°C° 0 mm 4 m/s 603 mmHg 69%
    17:00 0°C° 0 mm 4 m/s 602 mmHg 72%
    18:00 -1°C° 0 mm 4 m/s 602 mmHg 75%
    19:00 -1°C° 0 mm 4 m/s 602 mmHg 75%
    20:00 -1°C° 0 mm 4 m/s 602 mmHg 75%
    21:00 0°C° 0 mm 3 m/s 601 mmHg 76%
    22:00 -1°C° 0 mm 3 m/s 601 mmHg 74%
    23:00 -1°C° 0 mm 3 m/s 602 mmHg 73%

    Demain, 12 Décembre, Mercredi

    Heure Température Précipitation Vent Pression Humidité
    00:00 -1°C° 0 mm 3 m/s 602 mmHg 72%
    01:00 -1°C° 0.1 mm 3 m/s 602 mmHg 73%
    02:00 -2°C° 0.1 mm 3 m/s 602 mmHg 74%
    03:00 -2°C° 0.1 mm 3 m/s 603 mmHg 75%
    04:00 -2°C° 0 mm 3 m/s 603 mmHg 77%
    05:00 -2°C° 0 mm 3 m/s 603 mmHg 78%
    06:00 -4°C° 0 mm 3 m/s 603 mmHg 79%
    07:00 -2°C° 0 mm 3 m/s 603 mmHg 73%
    08:00 -2°C° 0 mm 3 m/s 603 mmHg 67%
    09:00 -1°C° 0 mm 3 m/s 603 mmHg 61%
    10:00 0°C° 0.2 mm 3 m/s 603 mmHg 64%
    11:00 0°C° 0.2 mm 3 m/s 603 mmHg 66%
    12:00 +1°C° 0.2 mm 3 m/s 603 mmHg 69%
    13:00 +1°C° 0.8 mm 3 m/s 602 mmHg 71%
    14:00 +1°C° 0.8 mm 3 m/s 602 mmHg 72%
    15:00 +1°C° 0.8 mm 3 m/s 602 mmHg 74%
    16:00 0°C° 0.4 mm 3 m/s 602 mmHg 75%
    17:00 0°C° 0.4 mm 3 m/s 602 mmHg 75%
    18:00 -1°C° 0.4 mm 3 m/s 602 mmHg 76%
    19:00 -1°C° 0.2 mm 3 m/s 602 mmHg 77%
    20:00 -1°C° 0.2 mm 3 m/s 602 mmHg 77%
    21:00 -1°C° 0.2 mm 3 m/s 602 mmHg 78%
    22:00 -1°C° 0.3 mm 3 m/s 602 mmHg 79%
    23:00 -1°C° 0.3 mm 3 m/s 602 mmHg 79%

    Après-demain, 13 Décembre, Jeudi

    Heure Température Précipitation Vent Pression Humidité
    00:00 -1°C° 0.3 mm 3 m/s 602 mmHg 80%
    01:00 -1°C° 0.2 mm 3 m/s 602 mmHg 81%
    02:00 -2°C° 0.2 mm 3 m/s 602 mmHg 81%
    03:00 -2°C° 0.2 mm 3 m/s 602 mmHg 82%
    04:00 -2°C° 0.1 mm 3 m/s 602 mmHg 82%
    05:00 -4°C° 0.1 mm 3 m/s 602 mmHg 82%
    06:00 -5°C° 0.1 mm 3 m/s 602 mmHg 83%
    07:00 -4°C° 0.1 mm 3 m/s 602 mmHg 81%
    08:00 -3°C° 0.1 mm 2 m/s 603 mmHg 79%
    09:00 -3°C° 0.1 mm 2 m/s 603 mmHg 76%
    10:00 -2°C° 0.3 mm 3 m/s 603 mmHg 77%
    11:00 -2°C° 0.3 mm 3 m/s 604 mmHg 78%
    12:00 -2°C° 0.3 mm 3 m/s 604 mmHg 78%
    13:00 -2°C° 0.5 mm 3 m/s 604 mmHg 81%
    14:00 -4°C° 0.5 mm 3 m/s 605 mmHg 83%
    15:00 -4°C° 0.5 mm 3 m/s 605 mmHg 86%
    16:00 -3°C° 0.3 mm 2 m/s 605 mmHg 87%
    17:00 -4°C° 0.3 mm 2 m/s 606 mmHg 88%
    18:00 -2°C° 0.3 mm 1 m/s 606 mmHg 89%
    19:00 -5°C° 0 mm 2 m/s 606 mmHg 87%
    20:00 -6°C° 0 mm 2 m/s 606 mmHg 85%
    21:00 -7°C° 0 mm 2 m/s 606 mmHg 83%
    22:00 -8°C° 0 mm 2 m/s 606 mmHg 80%
    23:00 -8°C° 0 mm 2 m/s 606 mmHg 76%

    14 Décembre, Vendredi

    Heure Température Précipitation Vent Pression Humidité
    00:00 -8°C° 0 mm 2 m/s 606 mmHg 73%
    01:00 -9°C° 0 mm 2 m/s 606 mmHg 74%
    02:00 -9°C° 0 mm 2 m/s 606 mmHg 75%
    03:00 -9°C° 0 mm 2 m/s 607 mmHg 76%
    04:00 -9°C° 0 mm 2 m/s 607 mmHg 75%
    05:00 -10°C° 0 mm 2 m/s 607 mmHg 74%
    06:00 -10°C° 0 mm 2 m/s 607 mmHg 73%
    07:00 -9°C° 0 mm 2 m/s 607 mmHg 71%
    08:00 -8°C° 0 mm 2 m/s 608 mmHg 69%
    09:00 -7°C° 0 mm 2 m/s 609 mmHg 68%
    10:00 -6°C° 0 mm 2 m/s 609 mmHg 65%
    11:00 -5°C° 0 mm 2 m/s 609 mmHg 63%
    12:00 -4°C° 0 mm 2 m/s 609 mmHg 60%
    13:00 -4°C° 0 mm 2 m/s 609 mmHg 62%
    14:00 -4°C° 0 mm 2 m/s 608 mmHg 63%
    15:00 -5°C° 0 mm 2 m/s 608 mmHg 65%
    16:00 -5°C° 0.2 mm 2 m/s 608 mmHg 70%
    17:00 -6°C° 0.2 mm 2 m/s 608 mmHg 75%
    18:00 -7°C° 0.2 mm 2 m/s 608 mmHg 80%
    19:00 -7°C° 0.2 mm 2 m/s 608 mmHg 82%
    20:00 -7°C° 0.2 mm 2 m/s 608 mmHg 83%
    21:00 -6°C° 0.2 mm 1 m/s 608 mmHg 84%
    22:00 -6°C° 0.2 mm 1 m/s 608 mmHg 85%
    23:00 -6°C° 0.2 mm 1 m/s 608 mmHg 86%

    15 Décembre, Samedi

    Heure Température Précipitation Vent Pression Humidité
    00:00 -6°C° 0.2 mm 1 m/s 608 mmHg 87%
    01:00 -6°C° 0.1 mm 1 m/s 608 mmHg 87%
    02:00 -7°C° 0.1 mm 1 m/s 608 mmHg 88%
    03:00 -7°C° 0.1 mm 1 m/s 608 mmHg 88%
    04:00 -7°C° 0 mm 1 m/s 608 mmHg 87%
    05:00 -8°C° 0 mm 1 m/s 608 mmHg 85%
    06:00 -8°C° 0 mm 1 m/s 608 mmHg 84%
    07:00 -8°C° 0 mm 1 m/s 609 mmHg 80%
    08:00 -7°C° 0 mm 1 m/s 609 mmHg 77%
    09:00 -6°C° 0 mm 1 m/s 610 mmHg 73%
    10:00 -4°C° 0 mm 1 m/s 610 mmHg 71%
    11:00 -3°C° 0 mm 1 m/s 611 mmHg 68%
    12:00 -2°C° 0 mm 1 m/s 611 mmHg 65%
    13:00 -3°C° 0 mm 1 m/s 611 mmHg 67%
    14:00 -3°C° 0 mm 1 m/s 611 mmHg 69%
    15:00 -3°C° 0 mm 1 m/s 611 mmHg 71%
    16:00 -4°C° 0 mm 1 m/s 610 mmHg 73%
    17:00 -7°C° 0 mm 1 m/s 610 mmHg 75%
    18:00 -8°C° 0 mm 1 m/s 610 mmHg 77%
    19:00 -8°C° 0 mm 1 m/s 610 mmHg 73%
    20:00 -9°C° 0 mm 2 m/s 610 mmHg 70%
    21:00 -10°C° 0 mm 2 m/s 610 mmHg 66%
    22:00 -10°C° 0 mm 2 m/s 610 mmHg 65%
    23:00 -10°C° 0 mm 2 m/s 610 mmHg 64%

    16 Décembre, Dimanche

    Heure Température Précipitation Vent Pression Humidité
    00:00 -10°C° 0 mm 2 m/s 610 mmHg 62%
    01:00 -10°C° 0 mm 2 m/s 610 mmHg 62%
    02:00 -10°C° 0 mm 2 m/s 610 mmHg 62%
    03:00 -10°C° 0 mm 2 m/s 610 mmHg 63%
    04:00 -10°C° 0 mm 2 m/s 610 mmHg 61%
    05:00 -10°C° 0 mm 2 m/s 610 mmHg 60%
    06:00 -10°C° 0 mm 2 m/s 611 mmHg 59%
    07:00 -8°C° 0 mm 1 m/s 611 mmHg 58%
    08:00 -6°C° 0 mm 1 m/s 612 mmHg 57%
    09:00 -4°C° 0 mm 1 m/s 613 mmHg 55%
    10:00 -3°C° 0 mm 1 m/s 613 mmHg 54%
    11:00 -2°C° 0 mm 1 m/s 613 mmHg 53%
    12:00 -1°C° 0 mm 1 m/s 613 mmHg 52%
    13:00 -1°C° 0 mm 1 m/s 613 mmHg 56%
    14:00 -2°C° 0 mm 1 m/s 613 mmHg 60%
    15:00 -2°C° 0 mm 1 m/s 613 mmHg 63%
    16:00 -3°C° 0 mm 1 m/s 612 mmHg 63%
    17:00 -6°C° 0 mm 1 m/s 612 mmHg 62%
    18:00 -8°C° 0 mm 2 m/s 612 mmHg 62%
    19:00 -8°C° 0 mm 2 m/s 612 mmHg 60%
    20:00 -8°C° 0 mm 2 m/s 612 mmHg 58%
    21:00 -8°C° 0 mm 2 m/s 612 mmHg 57%
    22:00 -9°C° 0 mm 2 m/s 611 mmHg 57%
    23:00 -9°C° 0 mm 2 m/s 611 mmHg 57%
    Voir plus